FW0761 Weather Reports


time (UTC)temp
C
wind
direction
speed
KPH
gust
KPH
rain 1hr
cm
rain 24hr
cm
rain mn
cm
humidity
%
barometer
mb
20260506044518 -17 186 0.0 0.0 0.00 0.00 0.00 1017.2
20260506043044 -17 186 0.0 0.0 0.00 0.00 0.00 1017.5
20260506041542 -17 186 0.0 0.0 0.00 0.00 0.00 1017.7
20260506040035 -17 186 0.0 0.0 0.00 0.00 0.00 1017.8
20260506034529 -17 186 0.0 0.0 0.00 0.00 0.00 1017.9
20260506033028 -17 186 0.0 0.0 0.00 0.00 0.00 1017.9
20260506031537 -17 186 0.0 0.0 0.00 0.00 0.00 1018.1
20260506030011 -17 186 0.0 0.0 0.00 0.00 0.00 1018.1
20260506024509 -17 186 0.0 0.0 0.00 0.00 0.00 1018.1
20260506023004 -17 187 0.0 0.0 0.00 0.00 0.00 1018.2
20260506021603 -17 187 0.0 0.0 0.00 0.00 0.00 1018.1
20260506020055 -17 188 0.0 0.0 0.00 0.00 0.00 1017.9
20260506014547 -17 167 0.0 0.0 0.00 0.00 0.00 1017.9
20260506013043 -17 167 0.0 0.0 0.00 0.00 0.00 1017.9
20260506011543 -17 168 0.0 0.0 0.00 0.00 0.00 1017.8
20260506010008 -17 169 0.0 0.0 0.00 0.00 0.00 1017.9
20260506004602 -17 165 0.0 0.0 0.00 0.00 0.00 1017.9
20260506003052 -17 171 0.0 0.0 0.00 0.00 0.00 1017.8
20260506001554 -17 178 0.0 0.0 0.00 0.00 0.00 1017.7
20260506000043 -17 171 0.0 0.0 0.00 0.00 0.00 1017.7
20260505234538 -17 184 0.0 0.0 0.00 0.00 0.00 1017.6
20260505233031 -17 177 0.0 0.0 0.00 0.00 0.00 1017.7
20260505231526 -17 159 0.0 0.0 0.00 0.00 0.00 1017.7
20260505230026 -17 182 0.0 0.0 0.00 0.00 0.00 1017.8
20260505224516 -17 154 0.0 0.0 0.00 0.00 0.00 1017.8
20260505223009 -17 360 0.0 0.0 0.00 0.00 0.00 1017.9
20260505221507 -17 178 0.0 0.0 0.00 0.00 0.00 1017.8
20260505220100 -17 169 0.0 0.0 0.00 0.00 0.00 1018.0
20260505214624 -17 182 0.0 0.0 0.00 0.00 0.00 1017.8
20260505213050 -17 173 0.0 0.0 0.00 0.00 0.00 1017.8
20260505211547 -17 173 0.0 0.0 0.00 0.00 0.00 1018.1
20260505210043 -17 178 0.0 0.0 0.00 0.00 0.00 1018.0
20260505204536 -17 171 0.0 0.0 0.00 0.00 0.00 1018.0
20260505203002 -17 173 0.0 0.0 0.00 0.00 0.00 1018.1
20260505201559 -17 173 0.0 0.0 0.00 0.00 0.00 1017.9
20260505200054 -17 175 0.0 0.0 0.00 0.00 0.00 1017.9
20260505194518 -17 180 0.0 0.0 0.00 0.00 0.00 1018.3
20260505193014 -17 182 0.0 0.0 0.00 0.00 0.00 1018.8
20260505191508 -17 182 0.0 0.0 0.00 0.00 0.00 1018.9
20260505190003 -17 186 0.0 0.0 0.00 0.00 0.00 1018.9
20260505184604 -17 174 0.0 0.0 0.00 0.00 0.00 1018.8
20260505183119 -17 180 0.0 0.0 0.00 0.00 0.00 1018.9
20260505181548 -17 161 0.0 0.0 0.00 0.00 0.00 1019.1
20260505180046 -17 158 0.0 0.0 0.00 0.00 0.00 1019.1
20260505174540 -17 136 0.0 0.0 0.00 0.00 0.00 1019.2
20260505173044 -17 136 0.0 0.0 0.00 0.00 0.00 1019.3
20260505171541 -17 127 0.0 0.0 0.00 0.00 0.00 1019.5
20260505170023 -17 125 0.0 0.0 0.00 0.00 0.00 1019.6
20260505164518 -17 123 0.0 0.0 0.00 0.00 0.00 1019.6
20260505163014 -17 123 0.0 0.0 0.00 0.00 0.00 1019.5
20260505161507 -17 121 0.0 0.0 0.00 0.00 0.00 1019.7
20260505153054 -17 126 0.0 0.0 0.00 0.00 0.00 1019.7
20260505151547 -17 124 0.0 0.0 0.00 0.00 0.00 1019.7
20260505124559 -17 95 0.0 0.0 0.00 0.00 0.00 1019.2
20260505123054 -17 95 0.0 0.0 0.00 0.00 0.00 1019.0
20260505121521 -17 187 0.0 0.0 0.00 0.00 0.00 1018.9
20260505120043 -17 187 0.0 0.0 0.00 0.00 0.00 1019.0
20260505114511 -17 187 0.0 0.0 0.00 0.00 0.00 1018.9
20260505113005 -17 187 0.0 0.0 0.00 0.00 0.00 1018.6
20260505111505 -17 187 0.0 0.0 0.00 0.00 0.00 1018.4
20260505101554 -17 176 0.0 0.0 0.00 0.00 0.00 1017.5
20260505100048 -17 175 0.0 0.0 0.00 0.00 0.00 1017.6
20260505094543 -17 175 0.0 0.0 0.00 0.00 0.00 1017.4
20260505093041 -17 175 0.0 0.0 0.00 0.00 0.00 1017.3
20260505091536 -17 175 0.0 0.0 0.00 0.00 0.00 1017.2
20260505090043 -17 175 0.0 0.0 0.00 0.00 0.00 1017.0
20260505084505 -17 175 0.0 0.0 0.00 0.00 0.00 1017.0
20260505083101 -17 175 0.0 0.0 0.00 0.00 0.00 1017.0
20260505081604 -17 175 0.0 0.0 0.00 0.00 0.00 1017.0
20260505080049 -17 175 0.0 0.0 0.00 0.00 0.00 1017.0
20260505074549 -17 175 0.0 0.0 0.00 0.00 0.00 1017.0
20260505073059 -17 175 0.0 0.0 0.00 0.00 0.00 1017.0
20260505071537 -17 175 0.0 0.0 0.00 0.00 0.00 1017.1
20260505070031 -17 175 0.0 0.0 0.00 0.00 0.00 1017.1
20260505064539 -17 175 0.0 0.0 0.00 0.00 0.00 1017.2
20260505063030 -17 175 0.0 0.0 0.00 0.00 0.00 1017.3
20260505061545 -17 175 0.0 0.0 0.00 0.00 0.00 1017.4
20260505060028 -17 175 0.0 0.0 0.00 0.00 0.00 1017.6